Location: Berg
(48.5667°N, 13.9833°E)
Time: 04:28:07
(UTC+00:00)

COSMOS 2406 - Pass Details

Date: 09 April 2020
Orbit: 842 x 865 km, 71.0° (Epoch: 01 June)

Event Time Altitude Azimuth Distance (km) Brightness Sun altitude
Exits shadow 19:13:13 20° 128° (SE) 1,858 4.4 -14.0°
Maximum altitude 19:14:59 23° 102° (ESE) 1,715 4.2 -14.3°
Drops below altitude 10° 19:19:22 10° 51° (NE) 2,487 5.4 -14.9°
Sets 19:22:17 0° 38° (NE) 3,432 6.3 -15.3°
